Voltar ao catálogo

DB-BECON-2-VU

AtivoCiênciaSSO
NORAD 68468·PAYLOAD·🇬🇷 Greece

Lançado Mar 30, 2026 de Vandenberg Space Force Base

Loading…

Próximas Passagens (próximas 24 horas)

TLE

AtualizadoSource: Space-Track

Época: Sep 14, 2026, 08:34 UTC

1 68468U 26067BE  26257.35719328  .00006896  00000-0  33294-3 0  9996
2 68468  97.4637 214.4878 0008669 101.7899 258.4308 15.18948488 25461

Acompanhe DB-BECON-2-VU em tempo real com AllMySat

Download on the App Store